Regional Weather Roundup
Issued by NWS Newport/Morehead, NC

Current Version | Previous Version | Graphics & Text | Print | Product List | Glossary Off
Versions: 1 2 3 4 5 6 7 8 9 10 11 12 13 14 15 16 17 18 19 20 21 22 23 24 25 26 27 28 29 30 31 32 33 34 35 36 37 38 39 40 41 42 43 44 45 46 47 48 49 50

000
ASUS42 KMHX 281124
RWRMHX
WEATHER ROUNDUP FOR EASTERN NORTH CAROLINA
NATIONAL WEATHER SERVICE NEWPORT/MOREHEAD CITY NC
700 AM EDT TUE APR 28 2015

NOTE: "FAIR" INDICATES FEW OR NO CLOUDS BELOW 12,000 FEET
WITH NO SIGNIFICANT WEATHER AND/OR OBSTRUCTIONS TO VISIBILITY

NCZ015>017-031-032-045>047-102-103-281200-
NORTH COAST

CITY           SKY/WX    TMP DP  RH WIND       PRES   REMARKS
EDENTON        CLEAR     47  38  71 NW9       29.93R
ELIZABETH CITY CLEAR     45  37  73 W9        29.91R
KITTY HAWK     SUNNY     49  40  72 NW7       29.88R
MANTEO         CLEAR     50  39  66 N10       29.90R

$$

NCZ045>047-081-094-103-104-281200-
CENTRAL COAST

CITY           SKY/WX    TMP DP  RH WIND       PRES   REMARKS
FRISCO         CLEAR     50  39  66 N9        29.89R
SWANQUARTER      N/A     48 N/A N/A N5        29.88S

$$

NCZ095-097-098-100-101-281200-
SOUTHERN COAST

CITY           SKY/WX    TMP DP  RH WIND       PRES   REMARKS
BEAUFORT       PTCLDY    49  39  68 N10       29.93R
CEDAR ISLAND     N/A     54 N/A N/A NW15G24   29.94S
JACKSONVILLE   PTCLDY    48  38  68 N9        29.94R
PINEY ISLAND   SUNNY    N/A N/A N/A N18       29.91R
WILMINGTON     PTCLDY    47  37  68 N8        29.94R


$$

NCZ011>013-027>030-043-044-078>080-089-090>093-098-281200-
COASTAL PLAIN

CITY           SKY/WX    TMP DP  RH WIND       PRES   REMARKS
AHOSKIE        CLEAR     41  36  81 CALM      29.95R
CLINTON        MOCLDY    46  40  79 CALM      29.96R
ELIZABETHTOWN  PTCLDY    46  38  74 CALM      29.96R
GOLDSBORO      CLEAR     47  36  64 N2        29.93R
GREENVILLE     CLEAR     45  37  76 CALM      29.96S
HAVELOCK       PTCLDY    51  37  58 N13       29.94R
KENANSVILLE    PTCLDY    44  38  80 CALM      29.96R
KINSTON        CLEAR     45  37  76 N3        29.95S
NEW BERN       CLEAR     49  38  65 N7        29.95R
RICHLANDS      PTCLDY    46  36  66 N3        29.96R
ROCKY MOUNT    CLEAR     42  37  82 NW6       29.95R
WASHINGTON     CLEAR     44  38  78 CALM      29.93F
WHITEVILLE     PTCLDY    45  40  83 CALM      29.94S

$$

AMZ130-135-150-152-154-156-158-170-250-252-270-ANZ085-086-088-633-658-670-281200-
MARINE OBSERVATIONS

STATION/POSITION TIME  TEMP    WIND        PRES    WAVE   SWELL
                       AIR SEA DIR/SP/G            HT/PER HT/PER
                 (UTC) (F)     (DEG/KT/KT) (MB)    (FT/S) (FT/S)
CHESAPEAKE LIGHT 1100   50     330/ 27/ 29 1011.5
64 E VA BEACH    1050   52 54  330/ 23/ 27 1009.4    6/ 5
DUCK             1000   50 54  320/ 12/ 16 1010.2
2 E DUCK         1011      54                N/A     2/ 4
OREGON INLET     1000   50 58  320/  9/ 13 1011.0
13E OREGON INLT  NOT AVBL
HATTERAS CG      1000   55 62  330/ 16/ 20 1010.9
DIAMOND BUOY     1050   56 74  340/ 17/ 21 1011.6    4/ 8   2/ 8
CAPE LOOKOUT     1100   52     350/ 14/ 15 1012.9
BEAUFORT LAB     1000   52 62  360/ 12/ 14 1011.8
27 SE WRIGHTSVLE 1100   56 72   20/ 17/ 19   N/A
5 SE WRIGHTSVLE  1008   57 65   10/ 16/ 21 1012.8
225 S CAPE HAT   1050   68 70  300/ 14/ 16 1010.5    4/ 8   3/ 8
41 SE CHARLESTON 1050   65 72   30/ 17/ 21 1011.6    5/ 5   2/ 9

$$



USA.gov is the U.S. government's official web portal to all federal, state and local government web resources and services.